Previsão horária em Senechiv

Hoje, 29 Novembro, Domingo

Tempo Temperatura Precipitação Vento Pressão Humidade
00:00 -5°C° 0 mm 2 m/s 688 mmHg 100%
01:00 -5°C° 0.1 mm 2 m/s 687 mmHg 100%
02:00 -1°C° 0 mm 0 m/s 689 mmHg 98%
03:00 -5°C° 0 mm 2 m/s 688 mmHg 100%
04:00 -5°C° 0.2 mm 2 m/s 688 mmHg 100%
05:00 -5°C° 0.3 mm 2 m/s 688 mmHg 100%
06:00 -5°C° 0.3 mm 2 m/s 688 mmHg 100%
07:00 -5°C° 0.3 mm 2 m/s 688 mmHg 100%
08:00 -5°C° 0.2 mm 2 m/s 688 mmHg 100%
09:00 -5°C° 0.2 mm 2 m/s 688 mmHg 100%
10:00 -5°C° 0.2 mm 2 m/s 688 mmHg 100%
11:00 -5°C° 0.1 mm 3 m/s 688 mmHg 100%
12:00 -5°C° 0.1 mm 3 m/s 688 mmHg 100%
13:00 -5°C° 0.1 mm 3 m/s 688 mmHg 100%
14:00 -5°C° 0.2 mm 3 m/s 688 mmHg 100%
15:00 -5°C° 0.2 mm 3 m/s 688 mmHg 100%
16:00 -4°C° 0.1 mm 2 m/s 688 mmHg 100%
17:00 -5°C° 0.1 mm 2 m/s 688 mmHg 100%
18:00 -5°C° 0 mm 2 m/s 688 mmHg 100%
19:00 -4°C° 0 mm 1 m/s 688 mmHg 100%
20:00 -5°C° 0 mm 0 m/s 688 mmHg 100%
21:00 -5°C° 0 mm 0 m/s 688 mmHg 100%
22:00 -6°C° 0 mm 0 m/s 688 mmHg 100%
23:00 -6°C° 0 mm 1 m/s 689 mmHg 100%

Amanhã, 30 Novembro, Segunda-feira

Tempo Temperatura Precipitação Vento Pressão Humidade
00:00 -6°C° 0 mm 1 m/s 689 mmHg 100%
01:00 -7°C° 0 mm 1 m/s 689 mmHg 100%
02:00 -7°C° 0 mm 1 m/s 689 mmHg 100%
03:00 -7°C° 0 mm 1 m/s 689 mmHg 100%
04:00 -7°C° 0 mm 1 m/s 689 mmHg 100%
05:00 -7°C° 0 mm 1 m/s 689 mmHg 100%
06:00 -7°C° 0 mm 1 m/s 689 mmHg 100%
07:00 -8°C° 0 mm 1 m/s 689 mmHg 100%
08:00 -8°C° 0 mm 1 m/s 689 mmHg 100%
09:00 -7°C° 0 mm 1 m/s 690 mmHg 100%
10:00 -7°C° 0 mm 1 m/s 690 mmHg 97%
11:00 -6°C° 0 mm 0 m/s 691 mmHg 97%
12:00 -5°C° 0 mm 0 m/s 691 mmHg 99%
13:00 -4°C° 0 mm 0 m/s 691 mmHg 100%
14:00 -2°C° 0 mm 1 m/s 691 mmHg 99%
15:00 -3°C° 0 mm 1 m/s 691 mmHg 100%
16:00 -4°C° 0 mm 1 m/s 691 mmHg 100%
17:00 -6°C° 0 mm 1 m/s 691 mmHg 100%
18:00 -6°C° 0 mm 1 m/s 691 mmHg 94%
19:00 -6°C° 0 mm 1 m/s 691 mmHg 88%
20:00 -6°C° 0 mm 1 m/s 691 mmHg 84%
21:00 -6°C° 0 mm 1 m/s 691 mmHg 79%
22:00 -6°C° 0 mm 0 m/s 691 mmHg 74%
23:00 -6°C° 0 mm 1 m/s 691 mmHg 70%

Depois de amanhã, 1 Dezembro, Terça-feira

Tempo Temperatura Precipitação Vento Pressão Humidade
00:00 -6°C° 0 mm 1 m/s 691 mmHg 66%
01:00 -6°C° 0 mm 1 m/s 691 mmHg 62%
02:00 -6°C° 0 mm 1 m/s 691 mmHg 61%
03:00 -6°C° 0 mm 1 m/s 691 mmHg 59%
04:00 -6°C° 0 mm 1 m/s 691 mmHg 57%
05:00 -6°C° 0 mm 1 m/s 691 mmHg 55%
06:00 -6°C° 0 mm 1 m/s 691 mmHg 53%
07:00 -6°C° 0 mm 1 m/s 691 mmHg 50%
08:00 -6°C° 0 mm 1 m/s 691 mmHg 47%
09:00 -4°C° 0 mm 1 m/s 691 mmHg 44%
10:00 -4°C° 0 mm 1 m/s 691 mmHg 43%
11:00 -3°C° 0 mm 1 m/s 691 mmHg 46%
12:00 -3°C° 0 mm 0 m/s 691 mmHg 58%
13:00 -2°C° 0 mm 0 m/s 691 mmHg 75%
14:00 -1°C° 0 mm 1 m/s 691 mmHg 88%
15:00 -1°C° 0 mm 1 m/s 691 mmHg 94%
16:00 -4°C° 0 mm 2 m/s 690 mmHg 100%
17:00 -5°C° 0 mm 2 m/s 690 mmHg 100%
18:00 -6°C° 0 mm 2 m/s 690 mmHg 96%
19:00 -6°C° 0 mm 2 m/s 690 mmHg 87%
20:00 -6°C° 0 mm 2 m/s 690 mmHg 80%
21:00 -6°C° 0 mm 2 m/s 690 mmHg 73%
22:00 -6°C° 0 mm 2 m/s 690 mmHg 69%
23:00 -7°C° 0 mm 2 m/s 690 mmHg 66%

2 Dezembro, Quarta-feira

Tempo Temperatura Precipitação Vento Pressão Humidade
00:00 -7°C° 0 mm 2 m/s 690 mmHg 64%
01:00 -6°C° 0 mm 2 m/s 690 mmHg 66%
02:00 -6°C° 0 mm 2 m/s 690 mmHg 72%
03:00 -6°C° 0 mm 2 m/s 690 mmHg 80%
04:00 -7°C° 0 mm 2 m/s 689 mmHg 90%
05:00 -7°C° 0 mm 2 m/s 689 mmHg 98%
06:00 -7°C° 0 mm 2 m/s 689 mmHg 100%
07:00 -7°C° 0 mm 2 m/s 689 mmHg 100%
08:00 -7°C° 0 mm 2 m/s 689 mmHg 100%
09:00 -7°C° 0 mm 2 m/s 689 mmHg 100%
10:00 -6°C° 0 mm 2 m/s 690 mmHg 100%
11:00 -3°C° 0 mm 1 m/s 690 mmHg 100%
12:00 -2°C° 0 mm 1 m/s 690 mmHg 100%
13:00 -1°C° 0 mm 1 m/s 689 mmHg 100%
14:00 0°C° 0 mm 1 m/s 689 mmHg 100%
15:00 -1°C° 0 mm 1 m/s 689 mmHg 100%
16:00 -2°C° 0 mm 1 m/s 689 mmHg 100%
17:00 -2°C° 0 mm 1 m/s 689 mmHg 100%
18:00 -3°C° 0 mm 1 m/s 689 mmHg 100%
19:00 -3°C° 0 mm 1 m/s 689 mmHg 100%
20:00 -3°C° 0 mm 1 m/s 689 mmHg 100%
21:00 -3°C° 0 mm 1 m/s 689 mmHg 99%
22:00 -3°C° 0 mm 1 m/s 689 mmHg 98%
23:00 -5°C° 0 mm 2 m/s 688 mmHg 99%

3 Dezembro, Quinta-feira

Tempo Temperatura Precipitação Vento Pressão Humidade
00:00 -5°C° 0 mm 2 m/s 688 mmHg 100%
01:00 -5°C° 0 mm 2 m/s 688 mmHg 100%
02:00 -5°C° 0 mm 2 m/s 688 mmHg 100%
03:00 -6°C° 0 mm 2 m/s 688 mmHg 100%
04:00 -6°C° 0 mm 2 m/s 687 mmHg 100%
05:00 -5°C° 0 mm 2 m/s 688 mmHg 97%
06:00 -5°C° 0 mm 2 m/s 687 mmHg 93%
07:00 -5°C° 0 mm 2 m/s 687 mmHg 91%
08:00 -5°C° 0 mm 2 m/s 687 mmHg 88%
09:00 -4°C° 0 mm 2 m/s 687 mmHg 85%
10:00 -4°C° 0 mm 2 m/s 687 mmHg 81%
11:00 -3°C° 0 mm 2 m/s 687 mmHg 81%
12:00 -2°C° 0 mm 2 m/s 688 mmHg 86%
13:00 -1°C° 0 mm 2 m/s 687 mmHg 90%
14:00 +1°C° 0 mm 2 m/s 687 mmHg 90%
15:00 +1°C° 0 mm 2 m/s 687 mmHg 88%
16:00 +1°C° 0 mm 2 m/s 687 mmHg 79%
17:00 +1°C° 0 mm 2 m/s 687 mmHg 66%
18:00 0°C° 0 mm 3 m/s 687 mmHg 60%
19:00 0°C° 0 mm 3 m/s 687 mmHg 58%
20:00 0°C° 0 mm 3 m/s 687 mmHg 59%
21:00 +1°C° 0 mm 3 m/s 687 mmHg 62%
22:00 +1°C° 0 mm 3 m/s 687 mmHg 65%
23:00 +1°C° 0 mm 3 m/s 687 mmHg 69%

4 Dezembro, Sexta-feira

Tempo Temperatura Precipitação Vento Pressão Humidade
00:00 +1°C° 0 mm 3 m/s 687 mmHg 73%
01:00 +1°C° 0 mm 3 m/s 686 mmHg 78%
02:00 0°C° 0 mm 4 m/s 686 mmHg 78%
03:00 0°C° 0 mm 4 m/s 686 mmHg 77%
04:00 0°C° 0 mm 4 m/s 685 mmHg 77%
05:00 0°C° 0 mm 4 m/s 685 mmHg 75%
06:00 0°C° 0 mm 5 m/s 685 mmHg 74%
07:00 0°C° 0 mm 5 m/s 685 mmHg 73%
08:00 0°C° 0 mm 4 m/s 685 mmHg 73%
09:00 0°C° 0 mm 5 m/s 685 mmHg 77%
10:00 +1°C° 0 mm 5 m/s 685 mmHg 82%
11:00 +2°C° 0 mm 6 m/s 685 mmHg 87%
12:00 +3°C° 0 mm 7 m/s 685 mmHg 90%
13:00 +3°C° 0 mm 7 m/s 685 mmHg 94%
14:00 +2°C° 0 mm 7 m/s 685 mmHg 99%
15:00 +2°C° 0.1 mm 6 m/s 685 mmHg 100%
16:00 +2°C° 0.1 mm 6 m/s 684 mmHg 100%
17:00 +1°C° 0.1 mm 6 m/s 684 mmHg 100%
18:00 +1°C° 0.1 mm 6 m/s 684 mmHg 100%
19:00 +1°C° 0.1 mm 6 m/s 684 mmHg 100%
20:00 +1°C° 0 mm 6 m/s 684 mmHg 100%
21:00 +1°C° 0.1 mm 6 m/s 684 mmHg 100%
22:00 +1°C° 0.2 mm 5 m/s 685 mmHg 100%
23:00 +1°C° 0.4 mm 5 m/s 685 mmHg 100%
Mostrar mais

Necessitamos do seu Consentimento

A Meteoprog e os seus Fornecedores de Serviços podem armazenar e aceder a dados pessoais como cookies, identificadores do dispositivo ou outras tecnologias semelhantes existentes no seu dispositivo e processar estes dados para personalizar conteúdos e anúncios, assim como funcionalidades nas redes sociais e análise de tráfego.

  • Armazenar e/ou aceder a informações no seu dispositivo

    Os cookies, identificadores do dispositivo ou outras informações podem ser armazenados ou acedidos no seu dispositivo, para os fins acima indicados.

  • Anúncios e conteúdos personalizados, medição de anúncios e conteúdos, dados sobre o público-alvo e desenvolvimento de produtos

    Os anúncios e os conteúdos podem ser personalizados com base num perfil. Podem ser adicionados dados adicionais para uma maior personalização dos anúncios e dos conteúdos. A eficácia dos anúncios e dos conteúdos pode ser medida. Podem ser obtidas informações sobre o público que visualizou os anúncios e os conteúdos. Estes dados podem ser usados para desenvolver ou melhorar sistemas, softwares ou a experiência do utilizador.

Ao clicar em "Eu concordo”, permitirá o uso de cookies, identificadores do dispositivo e web beacons mencionados ou outras tecnologias semelhantes. As configurações do navegador do seu dispositivo podem ser alteradas.

Para certos fins, podem ser invocados interesses legítimos ao invés de consentimento. Pode ler mais informação sobre este assunto na nossa Política de Privacidade e Cookies.